Regional Weather Roundup
Issued by NWS Cleveland, OH

Home | Current Version | Previous Version | Graphics & Text | Print | Product List | Glossary On
Versions: 1 2 3 4 5 6 7 8 9 10 11 12 13 14 15 16 17 18 19 20 21 22 23 24 25 26 27 28 29 30 31 32 33 34 35 36 37 38 39 40 41 42 43 44 45 46 47 48 49 50
000
ASUS41 KCLE 172300
RWRCLE
OHIO REGIONAL WEATHER ROUNDUP
NATIONAL WEATHER SERVICE WILMINGTON, OH
700 PM EDT THU AUG 17 2017

NOTE: "FAIR" INDICATES FEW OR NO CLOUDS BELOW 12,000 FEET WITH NO
SIGNIFICANT WEATHER AND/OR OBSTRUCTIONS TO VISIBILITY.

OHZ001>008-015>018-024>027-034-035-043-044-180000-
   NORTHWEST OHIO

CITY           SKY/WX    TMP DP  RH WIND       PRES   REMARKS
DEFIANCE       FAIR      83  66  56 SW10      29.76F
FINDLAY        FAIR      85  69  58 SW15G21   29.78S
TOLEDO EXPRESS FAIR      83  70  64 SW15G21   29.74F
TOLEDO EXEC    FAIR      85  72  65 SW12      29.75F HX  91
LIMA           FAIR      83  72  69 W16G22    29.80F
$$

OHZ009>014-019>023-028>033-038-089-180000-
   NORTHEAST OHIO

CITY           SKY/WX    TMP DP  RH WIND       PRES   REMARKS
CLE-HOPKINS    PTSUNNY   81  72  74 S10       29.80F
CLE-LAKEFRONT  CLOUDY    81  70  69 S9        29.77F
CUY CO. ARPT   NOT AVBL
LORAIN-ELYRIA  FAIR      80  70  71 SW8       29.79F
ASHTABULA      CLOUDY    75  74  96 S12       29.82R
AKRON-CANTON   CLOUDY    81  73  76 SW13      29.83F
WOOSTER        NOT AVBL
MANSFIELD      FAIR      79  72  79 S17G23    29.83F
YOUNGSTOWN     TSTM      81  72  74 S10       29.82F
$$

OHZ042-051>053-060>062-070>072-077>081-180000-
  SOUTHWEST OHIO

CITY           SKY/WX    TMP DP  RH WIND       PRES   REMARKS
CINC-COVINGTON LGT RAIN  79  76  90 SW10      29.87S
CINC-LUNKEN    PTSUNNY   81  75  82 SW13      29.85F
HAMILTON       PTSUNNY   82  77  84 CALM      29.85F HX  90
DAYTON         NOT AVBL
WRIGHT-PAT AFB NOT AVBL
DAYTON GENERAL PTSUNNY   78  74  87 S8        29.85F
WILMINGTON     FAIR      77  74  90 SW9       29.86F
$$

OHZ036-037-039>041-045>050-054>059-063>069-073>076-082>088-180000-
  CENTRAL AND SOUTHEAST OHIO

CITY           SKY/WX    TMP DP  RH WIND       PRES   REMARKS
COLUMBUS       CLOUDY    75  71  87 S9        29.85F
OSU AIRPORT    PTSUNNY   75  74  96 SW9       29.84F
BOLTON FIELD   SUNNY     73  72  94 SW13G21   29.86F
RICKENBACK AFB NOT AVBL
NEWARK         LGT RAIN  74  72  93 SW9       29.86S
MARION         FAIR      79  72  79 SW10      29.82F
LANCASTER      LGT RAIN  72  32  23 S7        29.87F
ZANESVILLE     LGT RAIN  74  72  93 SW9       29.88R
NEW PHILLY     LGT RAIN  78  75  90 SW3       29.84F
$$




USA.gov is the U.S. government's official web portal to all federal, state and local government web resources and services.